HL8791 RKSS-RKPC

Flight info

Callsign HL8791
Flight time 0h 47m
Altitude 25000
Route BULTI2Z BULTI Y711 DOTOL DOTOL2M
Aircraft C25C/M-SDE2E3FGHRWXY/LB1

Departure

Time 2025-09-05 16:27
Airport Gimpo International Airport (RKSS)

Arrival

Time 2025-09-05 17:15
Airport Jeju International Airport (RKPC)
Time Latitude Longitude Altitude Speed Heading
2025-09-05 16:08 37.55289 126.79179 59 ft 0 kts 225°
2025-09-05 16:19 37.55268 126.79146 60 ft 3 kts 281°
2025-09-05 16:20 37.55343 126.79044 60 ft 10 kts 315°
2025-09-05 16:20 37.55440 126.78988 60 ft 7 kts 46°
2025-09-05 16:21 37.55533 126.79103 50 ft 12 kts 43°
2025-09-05 16:21 37.55642 126.79048 53 ft 16 kts 315°
2025-09-05 16:21 37.55732 126.78934 54 ft 20 kts 315°
2025-09-05 16:22 37.55924 126.78692 52 ft 19 kts 315°
2025-09-05 16:22 37.56104 126.78465 55 ft 17 kts 317°
2025-09-05 16:23 37.56265 126.78263 55 ft 16 kts 315°
2025-09-05 16:24 37.56521 126.77940 52 ft 18 kts 315°
2025-09-05 16:24 37.56612 126.77826 51 ft 19 kts 321°
2025-09-05 16:25 37.56749 126.77652 49 ft 4 kts 127°
2025-09-05 16:25 37.56743 126.77660 51 ft 0 kts 135°
2025-09-05 16:26 37.56071 126.78505 68 ft 159 kts 136°
2025-09-05 16:26 37.54139 126.80985 1819 ft 217 kts 128°
2025-09-05 16:27 37.52215 126.83765 4593 ft 227 kts 135°
2025-09-05 16:28 37.47955 126.87579 6010 ft 269 kts 165°
2025-09-05 16:28 37.44323 126.88896 6009 ft 274 kts 163°
2025-09-05 16:29 37.40685 126.89232 6610 ft 257 kts 190°
2025-09-05 16:29 37.38870 126.89062 7392 ft 260 kts 182°
2025-09-05 16:29 37.35064 126.88738 9057 ft 282 kts 186°
2025-09-05 16:30 37.31025 126.88312 10420 ft 311 kts 186°
2025-09-05 16:30 37.26409 126.87863 11183 ft 347 kts 186°
2025-09-05 16:31 37.21571 126.87376 12441 ft 356 kts 186°
2025-09-05 16:32 37.14079 126.86632 14404 ft 361 kts 187°
2025-09-05 16:32 37.09043 126.86130 15505 ft 365 kts 187°
2025-09-05 16:33 37.03853 126.85612 15903 ft 383 kts 187°
2025-09-05 16:33 37.01205 126.85349 15911 ft 384 kts 186°
2025-09-05 16:33 36.95894 126.84824 17033 ft 381 kts 186°
2025-09-05 16:34 36.90608 126.84301 18145 ft 380 kts 186°
2025-09-05 16:34 36.85339 126.83781 19114 ft 379 kts 187°
2025-09-05 16:35 36.80908 126.83340 19415 ft 395 kts 187°
2025-09-05 16:36 36.72551 126.82526 20162 ft 407 kts 185°
2025-09-05 16:36 36.66790 126.82718 20684 ft 414 kts 180°
2025-09-05 16:37 36.61020 126.82922 21306 ft 415 kts 180°
2025-09-05 16:37 36.58130 126.83039 21620 ft 415 kts 180°
2025-09-05 16:37 36.52394 126.83262 22253 ft 415 kts 180°
2025-09-05 16:38 36.46605 126.83478 22902 ft 415 kts 180°
2025-09-05 16:38 36.40865 126.83695 23553 ft 409 kts 180°
2025-09-05 16:39 36.35145 126.83393 23883 ft 416 kts 187°
2025-09-05 16:40 36.26425 126.82457 23925 ft 413 kts 187°
2025-09-05 16:40 36.20655 126.81817 23926 ft 418 kts 187°
2025-09-05 16:41 36.14846 126.81193 23922 ft 420 kts 187°
2025-09-05 16:41 36.11930 126.80875 23923 ft 421 kts 187°
2025-09-05 16:41 36.06039 126.80235 23922 ft 423 kts 187°
2025-09-05 16:42 36.00175 126.79600 23922 ft 423 kts 187°
2025-09-05 16:42 35.94303 126.78964 23918 ft 424 kts 187°
2025-09-05 16:43 35.88424 126.78328 23918 ft 424 kts 187°
2025-09-05 16:44 35.79611 126.77373 23922 ft 424 kts 187°
2025-09-05 16:44 35.73732 126.76738 23925 ft 424 kts 187°
2025-09-05 16:45 35.67864 126.76104 23930 ft 423 kts 187°
2025-09-05 16:45 35.64929 126.75786 23934 ft 423 kts 186°
2025-09-05 16:45 35.59060 126.75155 23938 ft 423 kts 186°
2025-09-05 16:46 35.53195 126.74525 23937 ft 423 kts 186°
2025-09-05 16:46 35.47338 126.73896 23941 ft 423 kts 186°
2025-09-05 16:47 35.41474 126.73267 23942 ft 423 kts 186°
2025-09-05 16:48 35.32686 126.72327 23948 ft 423 kts 186°
2025-09-05 16:48 35.26860 126.71707 23942 ft 423 kts 186°
2025-09-05 16:49 35.21002 126.71084 23944 ft 423 kts 186°
2025-09-05 16:49 35.18061 126.70769 23938 ft 423 kts 186°
2025-09-05 16:49 35.12201 126.70145 23939 ft 422 kts 186°
2025-09-05 16:50 35.06351 126.69523 23934 ft 422 kts 186°
2025-09-05 16:50 35.00497 126.68903 23935 ft 422 kts 186°
2025-09-05 16:51 34.94653 126.68283 23934 ft 422 kts 186°
2025-09-05 16:52 34.85888 126.67359 23813 ft 424 kts 186°
2025-09-05 16:52 34.80237 126.66762 22703 ft 397 kts 186°
2025-09-05 16:53 34.74587 126.66163 21621 ft 396 kts 186°
2025-09-05 16:53 34.71903 126.65886 21089 ft 378 kts 186°
2025-09-05 16:53 34.66867 126.65355 20245 ft 359 kts 186°
2025-09-05 16:54 34.61775 126.64815 19727 ft 373 kts 186°
2025-09-05 16:54 34.56500 126.64262 19058 ft 387 kts 186°
2025-09-05 16:55 34.51064 126.63693 18402 ft 396 kts 186°
2025-09-05 16:56 34.42881 126.62838 17315 ft 389 kts 187°
2025-09-05 16:56 34.37514 126.62274 16581 ft 385 kts 187°
2025-09-05 16:56 34.34852 126.62001 16220 ft 383 kts 187°
2025-09-05 16:57 34.29559 126.61449 15517 ft 380 kts 187°
2025-09-05 16:57 34.24534 126.61252 13475 ft 369 kts 170°
2025-09-05 16:58 34.19713 126.62441 11993 ft 336 kts 171°
2025-09-05 16:58 34.15221 126.63571 10668 ft 330 kts 170°
2025-09-05 16:59 34.10733 126.64700 9639 ft 322 kts 170°
2025-09-05 17:00 34.04706 126.66202 9471 ft 280 kts 170°
2025-09-05 17:00 34.00908 126.67148 8807 ft 276 kts 170°
2025-09-05 17:00 33.99040 126.67618 8456 ft 273 kts 170°
2025-09-05 17:01 33.95362 126.68534 8021 ft 261 kts 170°
2025-09-05 17:02 33.90000 126.69866 7677 ft 285 kts 170°
2025-09-05 17:02 33.88102 126.70337 7241 ft 274 kts 170°
2025-09-05 17:02 33.84386 126.71263 5897 ft 270 kts 169°
2025-09-05 17:02 33.83767 126.71420 5655 ft 269 kts 169°
2025-09-05 17:04 33.78437 126.72738 4014 ft 251 kts 169°
2025-09-05 17:04 33.76743 126.73172 4000 ft 247 kts 169°
2025-09-05 17:04 33.73398 126.74101 3996 ft 247 kts 167°
2025-09-05 17:05 33.68263 126.75709 4005 ft 260 kts 165°
2025-09-05 17:05 33.66519 126.76300 4009 ft 257 kts 165°
2025-09-05 17:06 33.63270 126.75932 3995 ft 243 kts 223°
2025-09-05 17:06 33.62809 126.72288 3989 ft 238 kts 299°
2025-09-05 17:07 33.65014 126.69560 4001 ft 227 kts 288°
2025-09-05 17:08 33.62750 126.65742 3551 ft 227 kts 204°
2025-09-05 17:08 33.61368 126.64912 3387 ft 206 kts 215°
2025-09-05 17:08 33.59313 126.62853 2817 ft 190 kts 220°
2025-09-05 17:09 33.57493 126.60903 1963 ft 154 kts 219°
2025-09-05 17:09 33.56184 126.59019 1661 ft 130 kts 231°
2025-09-05 17:10 33.55412 126.57111 1302 ft 122 kts 242°
2025-09-05 17:10 33.54452 126.55459 870 ft 120 kts 232°
2025-09-05 17:11 33.53592 126.53719 859 ft 123 kts 236°
2025-09-05 17:11 33.52689 126.52035 576 ft 119 kts 234°
2025-09-05 17:12 33.52595 126.51866 530 ft 119 kts 236°
2025-09-05 17:12 33.52321 126.51347 406 ft 115 kts 236°
2025-09-05 17:13 33.51473 126.49709 129 ft 118 kts 236°
2025-09-05 17:13 33.50860 126.48531 88 ft 75 kts 238°
2025-09-05 17:14 33.50531 126.48277 82 ft 11 kts 58°
2025-09-05 17:14 33.50536 126.48325 83 ft 6 kts 137°
2025-09-05 17:15 33.50395 126.48402 82 ft 12 kts 163°
2025-09-05 17:15 33.50345 126.48438 84 ft 0 kts 149°